TimeEDT,TemperatureF,Dew PointF,Humidity,Sea Level PressureIn,VisibilityMPH,Wind Direction,Wind SpeedMPH,Gust SpeedMPH,PrecipitationIn,Events,Conditions,WindDirDegrees,DateUTC
12:13 AM,44.8,43.2,94,29.88,5.0,Calm,Calm,-,N/A,,Clear,0,2012-10-02 04:13:00
12:33 AM,43.9,42.3,94,29.87,0.8,Calm,Calm,-,N/A,,Mist,0,2012-10-02 04:33:00
12:53 AM,43.2,41.7,95,29.88,3.0,Calm,Calm,-,N/A,,Clear,0,2012-10-02 04:53:00
1:12 AM,43.3,41.9,95,29.87,5.0,Calm,Calm,-,N/A,,Clear,0,2012-10-02 05:12:00
1:33 AM,43.7,42.3,95,29.87,10.0,East,6.9,-,N/A,,Clear,90,2012-10-02 05:33:00
1:53 AM,44.1,42.6,95,29.88,10.0,ESE,3.5,-,N/A,,Clear,110,2012-10-02 05:53:00
2:33 AM,43.2,41.9,95,29.88,7.0,Calm,Calm,-,N/A,,Clear,0,2012-10-02 06:33:00
3:12 AM,42.1,40.6,95,29.88,7.0,Calm,Calm,-,N/A,,Clear,0,2012-10-02 07:12:00
3:33 AM,43.0,41.5,95,29.87,10.0,Calm,Calm,-,N/A,,Clear,0,2012-10-02 07:33:00
3:53 AM,43.0,41.5,95,29.87,10.0,Calm,Calm,-,N/A,,Clear,0,2012-10-02 07:53:00
4:13 AM,43.2,41.9,95,29.87,10.0,Calm,Calm,-,N/A,,Clear,0,2012-10-02 08:13:00
4:33 AM,44.6,43.2,95,29.88,10.0,ENE,3.5,-,N/A,,Clear,60,2012-10-02 08:33:00
4:53 AM,43.2,41.5,94,29.87,7.0,Calm,Calm,-,N/A,,Scattered Clouds,0,2012-10-02 08:53:00
5:13 AM,43.3,41.7,94,29.87,10.0,East,3.5,-,N/A,,Clear,90,2012-10-02 09:13:00
5:33 AM,43.7,41.9,93,29.87,10.0,East,3.5,-,N/A,,Clear,90,2012-10-02 09:33:00
5:53 AM,43.9,42.3,94,29.88,10.0,Calm,Calm,-,N/A,,Clear,0,2012-10-02 09:53:00
6:33 AM,42.8,41.2,94,29.88,10.0,East,4.6,-,N/A,,Clear,80,2012-10-02 10:33:00
6:52 AM,42.8,41.0,93,29.88,10.0,Calm,Calm,-,N/A,,Clear,0,2012-10-02 10:52:00
7:13 AM,42.4,40.8,94,29.89,7.0,Calm,Calm,-,N/A,,Clear,0,2012-10-02 11:13:00
7:33 AM,41.9,40.3,94,29.90,7.0,Calm,Calm,-,N/A,,Scattered Clouds,0,2012-10-02 11:33:00
8:13 AM,43.0,41.4,94,29.92,10.0,Calm,Calm,-,N/A,,Mostly Cloudy,0,2012-10-02 12:13:00
8:33 AM,43.5,41.9,94,29.92,10.0,Calm,Calm,-,N/A,,Clear,0,2012-10-02 12:33:00
8:53 AM,43.9,42.4,95,29.92,7.0,Calm,Calm,-,N/A,,Clear,0,2012-10-02 12:53:00
9:13 AM,46.4,44.8,94,29.92,10.0,Calm,Calm,-,N/A,,Clear,0,2012-10-02 13:13:00
9:33 AM,49.6,47.3,92,29.92,10.0,Calm,Calm,-,N/A,,Clear,0,2012-10-02 13:33:00
9:53 AM,51.8,48.2,88,29.92,10.0,Calm,Calm,-,N/A,,Clear,0,2012-10-02 13:53:00
10:13 AM,54.3,49.1,83,29.93,10.0,Calm,Calm,-,N/A,,Mostly Cloudy,0,2012-10-02 14:13:00
10:33 AM,55.0,49.6,82,29.93,10.0,Calm,Calm,-,N/A,,Overcast,0,2012-10-02 14:33:00
10:53 AM,56.3,50.9,82,29.93,10.0,North,3.5,-,N/A,,Overcast,360,2012-10-02 14:53:00
11:13 AM,57.2,51.1,80,29.93,10.0,Calm,Calm,-,N/A,,Overcast,0,2012-10-02 15:13:00
11:33 AM,59.0,50.9,74,29.93,10.0,Calm,Calm,-,N/A,,Overcast,0,2012-10-02 15:33:00
11:53 AM,59.9,51.1,73,29.93,10.0,Calm,Calm,-,N/A,,Scattered Clouds,0,2012-10-02 15:53:00
12:13 PM,62.2,50.9,66,29.93,10.0,East,5.8,-,N/A,,Clear,80,2012-10-02 16:13:00
12:33 PM,62.8,50.9,65,29.93,10.0,Calm,Calm,-,N/A,,Mostly Cloudy,0,2012-10-02 16:33:00
12:53 PM,62.4,51.6,68,29.93,10.0,NNW,5.8,-,N/A,,Overcast,340,2012-10-02 16:53:00
1:14 PM,62.8,51.8,67,29.93,10.0,WNW,4.6,-,N/A,,Mostly Cloudy,290,2012-10-02 17:14:00
1:33 PM,63.5,51.1,64,29.92,10.0,Calm,Calm,-,N/A,,Clear,0,2012-10-02 17:33:00
1:53 PM,64.8,51.1,61,29.92,10.0,WSW,3.5,-,N/A,,Scattered Clouds,250,2012-10-02 17:53:00
2:14 PM,66.2,50.7,57,29.91,10.0,Calm,Calm,-,N/A,,Clear,0,2012-10-02 18:14:00
2:33 PM,66.4,50.9,57,29.91,10.0,North,6.9,-,N/A,,Clear,350,2012-10-02 18:33:00
2:53 PM,64.6,51.8,63,29.91,10.0,NNW,3.5,-,N/A,,Scattered Clouds,340,2012-10-02 18:53:00
3:13 PM,65.7,51.6,60,29.90,10.0,NW,3.5,-,N/A,,Clear,320,2012-10-02 19:13:00
3:33 PM,67.1,51.1,56,29.90,10.0,North,5.8,-,N/A,,Clear,360,2012-10-02 19:33:00
3:53 PM,67.6,51.8,57,29.90,10.0,NNW,3.5,-,N/A,,Clear,330,2012-10-02 19:53:00
4:13 PM,67.8,51.6,56,29.90,10.0,NW,6.9,-,N/A,,Clear,320,2012-10-02 20:13:00
4:33 PM,66.7,52.9,61,29.90,10.0,WNW,3.5,-,N/A,,Clear,300,2012-10-02 20:33:00
4:53 PM,66.2,52.7,62,29.89,10.0,WNW,5.8,-,N/A,,Clear,300,2012-10-02 20:53:00
5:13 PM,66.2,52.9,62,29.90,10.0,WNW,3.5,-,N/A,,Clear,300,2012-10-02 21:13:00
5:33 PM,65.1,53.2,65,29.90,10.0,WNW,5.8,-,N/A,,Clear,300,2012-10-02 21:33:00
5:54 PM,64.8,53.1,66,29.90,10.0,NW,4.6,-,N/A,,Clear,320,2012-10-02 21:54:00
6:13 PM,64.4,53.1,67,29.90,10.0,NNW,5.8,-,N/A,,Clear,340,2012-10-02 22:13:00
6:33 PM,63.0,52.7,69,29.90,10.0,North,5.8,-,N/A,,Clear,360,2012-10-02 22:33:00
6:54 PM,61.5,52.7,73,29.91,10.0,NNE,4.6,-,N/A,,Clear,20,2012-10-02 22:54:00
7:13 PM,59.9,52.2,76,29.92,10.0,North,4.6,-,N/A,,Clear,10,2012-10-02 23:13:00
7:33 PM,58.3,51.8,79,29.92,10.0,North,3.5,-,N/A,,Clear,10,2012-10-02 23:33:00
7:54 PM,56.1,50.9,83,29.93,10.0,NNE,6.9,-,N/A,,Clear,30,2012-10-02 23:54:00
8:13 PM,54.9,51.3,88,29.93,10.0,Calm,Calm,-,N/A,,Clear,0,2012-10-03 00:13:00
8:33 PM,52.5,50.0,91,29.94,10.0,NNE,3.5,-,N/A,,Clear,20,2012-10-03 00:33:00
8:53 PM,52.9,50.4,91,29.95,10.0,Calm,Calm,-,N/A,,Clear,0,2012-10-03 00:53:00
9:13 PM,51.6,49.1,91,29.95,7.0,Calm,Calm,-,N/A,,Clear,0,2012-10-03 01:13:00
9:34 PM,50.2,48.2,93,29.95,7.0,Calm,Calm,-,N/A,,Clear,0,2012-10-03 01:34:00
9:53 PM,50.0,48.2,94,29.95,4.0,NNE,4.6,-,N/A,,Clear,20,2012-10-03 01:53:00
10:13 PM,49.6,47.8,94,29.96,3.0,Calm,Calm,-,N/A,,Clear,0,2012-10-03 02:13:00
10:33 PM,48.9,47.3,94,29.96,2.5,Calm,Calm,-,N/A,,Clear,0,2012-10-03 02:33:00
10:53 PM,46.6,45.0,94,29.96,3.0,NNW,3.5,-,N/A,,Clear,340,2012-10-03 02:53:00
11:14 PM,46.0,44.4,94,29.97,5.0,Calm,Calm,-,N/A,,Clear,0,2012-10-03 03:14:00
11:33 PM,45.1,43.5,94,29.97,0.8,Calm,Calm,-,N/A,,Scattered Clouds,0,2012-10-03 03:33:00
11:53 PM,45.1,43.7,95,29.96,3.0,Calm,Calm,-,N/A,,Clear,0,2012-10-03 03:53:00